Gillette, WY

2:10 PM MDT on April 27, 2017 (GMT -0600)
Gillette-Campbell County

Weather History for KGCC - March, 2014

Change the Weather History Date:

Sunday, March 23, 2014

  Actual Average Record
Temperature  
Mean Temperature 28 °F 36 °F  
Max Temperature 40 °F 49 °F 78 °F (2012)
Min Temperature 15 °F 24 °F -12 °F (1965)
Degree Days  
Heating Degree Days 37 28  
Month to date heating degree days 725 718  
Since 1 July heating degree days 6370 6126  
Cooling Degree Days 0 0  
Month to date cooling degree days 0 0  
Year to date cooling degree days 0 0  
Moisture  
Dew Point 19 °F    
Average Humidity 66    
Maximum Humidity 81    
Minimum Humidity 50    
Precipitation  
Precipitation T in 0.03 in 0.32 in (2017)
Month to date precipitation 0.60 0.65  
Year to date precipitation 1.88 1.43  
Sea Level Pressure  
Sea Level Pressure 30.21 in    
Wind  
Wind Speed 12 mph (North)    
Max Wind Speed 26 mph    
Max Gust Speed 31 mph    
Visibility 10 miles    
Events Snow    
T = Trace of Precipitation, MM = Missing Value Source: NWS Daily Summary

Daily Weather History Graph

Daily Weather History Graph

Search for Another Location

Airport or City:

Trip Planner

Search our weather history database for the weather conditions in past years. The results will help you decide how hot, cold, wet, or windy it might be!

Date:

Astronomy

Mar. 23, 2014 Rise Set
Actual Time 6:59 AM MDT 7:18 PM MDT
Civil Twilight 6:30 AM MDT 7:47 PM MDT
Nautical Twilight 5:56 AM MDT 8:21 PM MDT
Astronomical Twilight 5:21 AM MDT 8:56 PM MDT
Moon 1:48 AM MDT (3/23) 11:32 AM MDT (3/23)
Length of Visible Light 13h 16m
Length of Day
12h 18m
Waning Gibbous, 54% of the Moon is Illuminated
Mar 23
Waning Gibbous
Mar 23
Last Quarter
Mar 30
New
Apr 7
First Quarter
Apr 15
Full

Hourly Weather History & Observations

Time (MDT) Temp. Windchill Dew Point Humidity Pressure Visibility Wind Dir Wind Speed Gust Speed Precip Events Conditions
12:53 AM 15.1 °F - 10.0 °F 80% 30.40 in 10.0 mi Calm Calm - N/A   Clear
1:53 AM 15.1 °F 2.5 °F 9.0 °F 77% 30.37 in 10.0 mi South 10.4 mph - N/A   Clear
2:53 AM 15.1 °F 1.8 °F 10.0 °F 80% 30.34 in 10.0 mi South 11.5 mph - N/A   Clear
3:53 AM 16.0 °F 2.3 °F 10.0 °F 77% 30.30 in 10.0 mi South 12.7 mph - N/A   Clear
4:53 AM 17.1 °F 2.0 °F 10.9 °F 77% 30.25 in 10.0 mi South 16.1 mph - N/A   Clear
5:53 AM 18.0 °F 2.2 °F 12.9 °F 81% 30.22 in 10.0 mi South 18.4 mph - N/A   Clear
6:53 AM 17.1 °F 0.6 °F 12.0 °F 81% 30.21 in 10.0 mi South 19.6 mph - N/A   Clear
7:53 AM 18.0 °F 4.8 °F 12.9 °F 81% 30.19 in 10.0 mi SSE 12.7 mph - N/A   Clear
8:53 AM 21.0 °F 9.3 °F 16.0 °F 81% 30.18 in 10.0 mi SSE 11.5 mph - N/A   Scattered Clouds
9:53 AM 24.1 °F 11.5 °F 18.0 °F 77% 30.16 in 10.0 mi SSE 15.0 mph - N/A   Mostly Cloudy
10:53 AM 28.0 °F 20.0 °F 21.0 °F 75% 30.15 in 10.0 mi SSE 8.1 mph - N/A   Mostly Cloudy
11:53 AM 34.0 °F - 23.0 °F 64% 30.11 in 10.0 mi Calm Calm - N/A   Partly Cloudy
12:53 PM 37.0 °F 34.5 °F 25.0 °F 62% 30.10 in 10.0 mi NNE 3.5 mph - N/A   Clear
1:53 PM 39.0 °F 32.8 °F 23.0 °F 53% 30.10 in 10.0 mi North 9.2 mph - N/A   Clear
2:53 PM 39.9 °F 31.1 °F 23.0 °F 51% 30.10 in 10.0 mi North 17.3 mph 25.3 mph N/A   Scattered Clouds
3:53 PM 36.0 °F 25.3 °F 23.0 °F 59% 30.14 in 10.0 mi North 19.6 mph 25.3 mph N/A   Overcast
4:25 PM 32.0 °F 19.8 °F 26.6 °F 80% 30.04 in 4.0 mi NNW 20.7 mph - 0.00 in Snow Light Snow
4:53 PM 32.0 °F 20.5 °F 24.1 °F 73% 30.17 in 10.0 mi NNW 18.4 mph - 0.00 in   Overcast
5:34 PM 32.0 °F 20.8 °F 23.0 °F 69% 30.08 in 10.0 mi NNW 17.3 mph - N/A   Overcast
5:53 PM 32.0 °F 20.5 °F 21.9 °F 66% 30.21 in 10.0 mi NNW 18.4 mph - N/A   Overcast
6:53 PM 30.0 °F 19.5 °F 21.9 °F 72% 30.24 in 10.0 mi NNW 13.8 mph - N/A   Partly Cloudy
7:53 PM 28.0 °F 17.5 °F 21.9 °F 78% 30.27 in 10.0 mi North 12.7 mph - N/A   Scattered Clouds
8:15 PM 28.4 °F 18.5 °F 21.2 °F 74% 30.14 in 10.0 mi North 11.5 mph - N/A   Mostly Cloudy
8:35 PM 28.4 °F 17.0 °F 21.2 °F 74% 30.15 in 10.0 mi North 15.0 mph - N/A   Mostly Cloudy
8:53 PM 27.0 °F 15.2 °F 21.0 °F 78% 30.28 in 10.0 mi North 15.0 mph - N/A   Mostly Cloudy
9:53 PM 26.1 °F 15.6 °F 19.0 °F 75% 30.31 in 10.0 mi North 11.5 mph - N/A   Scattered Clouds
10:53 PM 24.1 °F 15.2 °F 19.0 °F 81% 30.30 in 10.0 mi North 8.1 mph - N/A   Clear
11:14 PM 24.8 °F 15.3 °F 19.4 °F 80% 30.19 in 10.0 mi NNW 9.2 mph - N/A   Mostly Cloudy
11:36 PM 24.8 °F 16.9 °F 17.6 °F 74% 30.20 in 10.0 mi North 6.9 mph - N/A   Scattered Clouds
11:53 PM 23.0 °F 15.8 °F 18.0 °F 81% 30.29 in 10.0 mi NNE 5.8 mph - N/A   Scattered Clouds